Location: Pedholt
(56.0260°N, 10.2097°E)
Time: 05:59:40
(UTC+00:00)

Cosmos 2360 Rocket - Pass Details

Date: 14 July 2020
Orbit: 832 x 846 km, 71.0° (Epoch: 14 August)

Event Time Altitude Azimuth Distance (km) Brightness Sun altitude
Rises 01:30:15 0° 321° (NW) 3,418 5.7 -7.9°
Reaches altitude 10° 01:32:58 10° 331° (NNW) 2,481 5.1 -7.8°
Maximum altitude 01:38:05 33° 35° (NE) 1,399 4.3 -7.4°
Drops below altitude 10° 01:43:11 10° 99° (E) 2,474 5.0 -7.0°
Sets 01:45:53 0° 109° (ESE) 3,406 5.5 -6.8°
